Wind_Speed
24 27 29 31 33 35 36 35 36 35 35 34 34 34 35 36 36 37 39 41 43 44 45 45 46 47 47 48 49 49 49 50 51 50 50 49 49 49 49 49 49 49 49 49
23 25 28 30 32 33 34 34 34 35 36 36 35 34 35 35 36 36 37 39 40 42 44 44 45 46 47 47 48 49 50 50 51 51 51 51 50 50 50 50 50 50 50 51
22 24 26 30 31 32 33 33 34 34 35 36 36 36 36 36 36 37 37 37 38 41 42 44 45 45 45 46 47 48 49 50 51 51 51 51 51 51 51 51 51 51 51 50
22 23 26 27 29 31 32 32 33 34 34 35 36 37 37 37 38 38 37 37 37 39 41 42 44 45 45 46 47 48 49 50 51 51 51 51 51 51 51 51 51 51 51 51
22 23 25 25 27 28 31 32 32 32 33 34 35 35 36 37 37 38 37 36 36 37 39 40 42 44 45 46 47 48 48 49 50 51 51 51 50 50 51 50 50 51 51 51
21 23 24 25 26 27 29 30 31 32 32 33 34 35 34 35 36 37 37 36 36 36 37 39 40 41 42 44 45 46 47 47 48 49 49 50 50 50 50 50 50 50 50 50
22 23 23 24 26 27 28 27 28 30 32 32 32 33 33 34 35 35 36 36 36 36 36 37 38 39 40 41 42 43 44 45 46 48 48 48 49 49 49 49 50 50 50 50
21 23 23 24 26 27 28 27 28 29 30 31 32 33 33 33 34 34 34 35 35 36 37 37 37 38 39 40 41 41 42 43 45 46 47 47 47 48 48 48 48 49 49 49
20 21 22 23 25 26 27 28 28 28 29 30 31 33 34 34 34 35 35 35 35 36 36 37 38 39 40 41 41 41 42 42 43 44 45 45 46 46 46 46 47 47 47 48
19 20 21 22 23 24 25 26 26 27 28 28 29 30 31 33 34 34 35 35 36 36 37 37 38 39 39 39 40 41 42 42 42 43 43 44 45 45 46 46 46 47 47 47
20 20 21 21 22 22 23 24 25 26 27 28 29 29 30 31 32 33 34 35 36 36 37 38 39 39 39 39 39 41 42 43 43 43 43 43 44 45 45 46 46 46 46 46
20 21 22 22 22 22 23 24 25 26 26 28 28 29 29 31 32 33 33 34 36 37 37 37 38 39 39 39 40 41 41 42 43 43 43 43 44 45 45 45 45 46 46 46
20 20 21 21 22 22 23 24 25 25 26 27 27 27 28 29 31 32 33 34 35 36 36 36 37 38 38 39 40 40 41 42 42 43 43 44 44 45 45 46 46 46 46 46
19 20 20 21 22 23 24 24 25 25 26 27 27 27 28 29 30 30 31 33 33 34 35 36 36 37 37 38 39 39 40 41 41 41 42 43 44 44 44 44 44 45 45 46
20 20 21 21 22 23 24 25 25 25 26 26 27 27 28 28 29 29 30 31 32 33 34 35 36 36 37 37 37 37 38 38 39 39 40 41 41 42 42 42 43 43 43 43
21 21 21 21 22 23 23 24 24 25 26 26 27 27 28 28 28 29 30 30 31 32 33 34 35 35 36 36 36 36 36 36 37 37 38 38 39 40 41 41 41 41 41 41
21 21 21 21 22 22 22 22 23 23 25 26 27 27 28 28 29 29 29 30 30 31 32 33 34 34 35 35 35 36 35 35 36 36 36 36 37 38 38 38 38 38 38 39
22 22 22 22 22 22 22 22 23 23 24 25 26 27 28 28 28 29 29 29 30 30 31 32 32 33 34 34 35 35 35 35 35 35 35 35 35 35 35 35 35 36 36 36
22 22 22 22 22 22 22 22 23 23 24 24 25 26 27 28 28 28 29 29 29 30 31 32 32 33 33 33 33 33 33 33 33 33 33 32 32 32 33 33 34 34 35 35
22 22 21 21 21 21 21 22 22 23 24 24 25 25 26 27 27 28 29 29 30 30 30 31 31 32 32 32 32 32 32 32 32 31 32 32 32 32 32 32 33 33 34 34
22 22 22 21 21 21 21 21 22 22 23 24 25 25 26 26 27 27 28 28 28 29 29 29 29 29 29 29 30 30 30 30 30 30 30 31 31 32 32 32 32 32 33 33
23 23 22 21 21 21 21 21 22 23 24 24 25 25 26 26 26 26 26 27 27 27 27 27 27 27 27 28 28 28 28 28 29 29 29 29 29 29 29 30 30 30 31 30
23 23 22 22 21 21 21 21 22 23 23 24 24 25 25 25 25 25 26 26 26 26 25 25 25 25 25 25 25 26 26 27 27 27 27 27 27 27 28 28 28 28 28 28
25 24 23 23 23 22 22 22 22 22 22 23 23 23 23 23 23 24 23 23 23 23 22 22 23 23 23 24 24 25 25 26 26 26 26 26 26 26 26 25 25 25 25 25
25 24 24 23 23 22 22 22 22 22 21 21 21 21 21 21 22 22 21 21 20 20 20 21 22 23 23 23 23 23 24 24 24 23 23 23 23 23 23 23 23 23 23 23
25 24 24 24 23 23 23 23 22 22 21 21 20 20 20 20 20 19 19 19 19 19 19 19 20 20 20 21 21 21 22 22 22 22 22 22 22 21 21 22 21 21 21 20
25 25 24 24 24 23 23 22 22 21 21 20 20 19 19 19 19 18 18 17 17 17 18 18 18 19 19 19 20 20 20 20 20 20 21 21 21 21 20 20 20 19 19 19
Wind_Direction
245 243 241 239 238 238 240 243 246 247 248 249 250 251 250 250 249 249 247 245 244 243 243 244 244 245 245 245 245 245 246 247 247 249 250 252 254 256 258 260 262 264 266 268
248 245 243 241 240 240 242 243 245 246 247 247 249 250 250 250 250 248 247 246 245 245 244 244 244 245 245 246 246 246 246 247 248 249 251 252 255 257 259 261 263 265 267 268
254 250 248 243 242 244 244 245 246 247 249 250 249 248 249 250 250 249 248 247 247 247 246 245 245 245 245 245 246 247 248 248 249 250 251 253 255 258 260 262 263 266 267 268
259 256 252 250 245 244 245 246 247 248 248 248 248 248 249 250 250 250 250 249 248 247 247 246 246 246 245 245 246 248 249 250 250 251 252 254 256 258 260 262 264 266 268 269
259 258 256 253 252 249 249 248 249 251 251 251 250 250 250 250 250 251 251 251 250 248 247 247 246 246 247 247 248 248 249 251 251 252 253 255 257 259 261 263 265 266 267 268
262 260 259 256 254 253 252 252 251 253 253 253 252 251 251 250 251 251 251 251 251 249 249 248 247 247 248 248 249 250 250 251 252 253 255 256 259 260 262 264 265 266 267 268
267 266 264 260 258 256 256 257 256 255 254 253 253 253 251 251 251 250 251 251 250 250 250 249 249 248 248 249 250 251 252 252 253 254 255 257 259 261 263 264 266 267 268 269
271 269 269 267 263 259 259 259 259 258 257 256 254 253 253 252 252 252 251 251 251 250 250 250 250 249 249 251 252 252 253 254 255 255 257 258 260 262 264 264 266 267 268 269
277 276 276 273 269 263 260 260 259 259 259 258 257 256 255 254 254 254 253 252 252 251 252 252 251 251 251 252 252 253 254 254 255 256 257 259 261 262 263 265 266 267 268 269
278 276 276 276 273 269 263 261 260 260 260 259 258 256 256 255 254 254 253 254 253 253 253 253 253 253 252 253 252 252 253 254 255 256 257 259 261 262 263 265 266 268 269 270
279 278 277 276 274 271 267 263 261 259 260 260 259 257 256 255 254 253 253 254 253 253 254 254 254 254 253 254 255 255 255 255 256 257 260 261 262 263 264 266 266 267 269 270
284 281 280 278 275 272 269 266 263 261 260 259 258 257 257 257 256 256 256 256 255 254 255 256 256 256 256 257 258 258 259 258 258 260 261 263 264 265 266 267 268 270 270 271
286 283 281 279 277 274 271 268 265 262 260 259 257 256 257 258 258 258 258 258 257 256 256 256 257 256 257 258 260 260 259 260 260 261 262 263 265 266 268 269 270 271 271 272
288 285 283 280 277 276 273 271 268 265 262 260 259 259 260 260 260 260 260 259 258 257 257 257 257 258 258 259 260 260 260 261 262 263 264 264 265 267 268 269 269 270 271 272
289 287 286 283 281 279 276 273 270 267 264 260 259 259 260 261 261 262 262 261 260 259 259 259 259 259 259 260 261 262 262 263 264 265 266 267 267 267 268 269 270 271 271 272
291 290 289 286 285 282 278 275 272 268 264 261 260 261 262 263 264 265 265 264 263 262 262 262 261 260 260 261 262 263 264 265 265 266 267 268 268 269 269 270 271 272 272 273
294 293 291 289 288 285 280 276 273 270 267 264 263 264 265 266 267 268 269 267 266 265 265 265 264 262 262 263 265 265 265 266 266 267 268 269 269 268 268 269 270 271 272 273
297 295 293 291 290 287 284 279 275 272 270 268 266 267 267 268 269 270 271 270 269 268 267 267 266 266 265 265 266 267 267 267 268 269 269 270 270 269 268 269 270 272 272 272
298 297 296 293 291 288 285 281 278 274 272 271 270 270 271 271 271 272 272 272 273 271 270 269 268 268 268 268 268 267 266 266 267 268 268 268 269 270 270 270 271 272 273 273
299 298 297 295 293 290 286 283 280 277 275 273 273 272 273 273 273 274 274 274 274 273 272 271 270 269 269 268 268 267 266 267 267 267 267 268 269 271 271 272 273 273 274 274
298 297 296 294 293 292 288 285 283 280 278 277 276 275 274 275 275 275 275 275 275 274 273 271 270 269 268 267 267 266 266 267 268 268 269 270 270 272 273 273 273 273 274 275
296 296 295 294 293 292 290 287 284 282 281 279 278 277 276 276 276 276 276 276 276 276 274 272 271 269 268 267 266 266 266 267 269 270 270 271 272 272 272 273 274 275 275 275
294 294 293 292 292 292 290 288 286 285 283 282 281 279 277 276 276 277 276 276 276 276 274 272 270 269 268 268 267 267 267 268 269 269 270 271 272 272 274 275 275 275 275 275
291 291 290 290 291 291 289 287 286 285 285 285 283 281 279 279 278 278 277 276 276 275 273 271 270 270 270 270 269 269 269 270 270 269 269 271 272 273 275 275 275 275 275 274
289 290 289 290 291 290 289 287 286 285 285 285 285 283 281 280 280 279 276 275 275 274 273 273 273 273 272 273 272 271 271 271 270 270 270 272 273 274 274 276 276 275 275 274
287 288 288 289 290 289 288 287 285 284 284 285 285 285 283 282 281 280 277 276 275 274 275 275 275 274 273 273 272 272 271 270 270 270 271 271 272 273 274 276 276 275 273 273
284 285 286 288 289 288 287 285 283 282 283 284 284 284 283 282 280 279 278 276 275 275 276 277 276 276 275 274 273 273 272 271 271 271 271 270 271 272 273 274 275 275 273 271
Height
5563 5566 5569 5572 5575 5578 5581 5584 5586 5589 5591 5593 5595 5598 5601 5603 5606 5609 5612 5615 5618 5621 5625 5629 5632 5636 5639 5643 5647 5650 5654 5658 5662 5665 5668 5671 5673 5676 5677 5679 5681 5682 5682 5683
5559 5560 5563 5565 5568 5571 5574 5576 5578 5580 5583 5585 5588 5590 5592 5595 5597 5600 5603 5605 5608 5611 5614 5618 5621 5625 5628 5632 5635 5639 5642 5646 5649 5653 5656 5659 5661 5664 5666 5667 5669 5669 5670 5670
5554 5555 5557 5560 5563 5565 5567 5569 5571 5573 5576 5578 5580 5582 5584 5587 5589 5591 5594 5596 5599 5601 5604 5607 5611 5614 5617 5621 5624 5627 5631 5634 5637 5640 5644 5647 5649 5651 5653 5655 5656 5657 5657 5657
5549 5551 5551 5556 5556 5558 5560 5562 5563 5565 5567 5569 5571 5573 5576 5578 5580 5582 5585 5587 5589 5592 5594 5597 5600 5603 5606 5609 5613 5616 5619 5622 5625 5628 5632 5635 5637 5639 5641 5642 5643 5644 5644 5644
5543 5544 5545 5548 5550 5551 5553 5555 5557 5558 5559 5561 5563 5565 5567 5569 5571 5573 5576 5578 5580 5582 5584 5587 5589 5592 5595 5598 5601 5604 5607 5610 5613 5616 5619 5622 5625 5626 5628 5629 5630 5631 5631 5631
5538 5538 5540 5543 5543 5544 5546 5547 5549 5550 5551 5552 5554 5557 5559 5560 5562 5564 5566 5568 5570 5572 5575 5577 5579 5582 5584 5587 5590 5593 5596 5599 5601 5604 5607 5610 5612 5614 5615 5616 5617 5617 5618 5618
5533 5533 5534 5536 5536 5537 5540 5542 5542 5542 5543 5544 5545 5548 5550 5551 5553 5555 5557 5559 5561 5563 5565 5567 5569 5572 5574 5577 5580 5582 5585 5587 5590 5593 5595 5597 5599 5601 5602 5603 5604 5604 5605 5605
5528 5528 5531 5530 5529 5531 5532 5532 5533 5534 5534 5536 5537 5538 5540 5542 5544 5546 5548 5550 5552 5554 5556 5558 5560 5562 5564 5567 5569 5571 5574 5576 5578 5580 5583 5585 5586 5588 5589 5590 5591 5591 5592 5592
5524 5525 5524 5522 5522 5523 5523 5524 5525 5526 5527 5527 5528 5530 5532 5533 5535 5537 5538 5540 5542 5544 5546 5548 5550 5552 5554 5556 5558 5560 5562 5564 5566 5568 5570 5572 5574 5575 5576 5577 5578 5578 5579 5579
5517 5518 5517 5516 5516 5516 5516 5517 5517 5518 5518 5519 5520 5521 5523 5524 5526 5527 5529 5531 5533 5535 5536 5538 5539 5541 5543 5545 5547 5549 5551 5553 5554 5556 5558 5560 5561 5562 5564 5564 5565 5565 5566 5566
5512 5512 5511 5510 5509 5509 5509 5509 5510 5510 5510 5511 5512 5513 5514 5516 5517 5518 5520 5521 5523 5524 5526 5528 5529 5531 5533 5534 5536 5538 5539 5541 5543 5545 5546 5547 5548 5550 5551 5552 5552 5552 5553 5553
5507 5506 5505 5504 5503 5502 5502 5502 5502 5503 5503 5504 5504 5505 5506 5507 5508 5509 5510 5511 5512 5514 5516 5517 5519 5520 5522 5523 5524 5526 5528 5529 5531 5533 5534 5535 5536 5537 5537 5538 5538 5539 5539 5539
5500 5499 5498 5497 5496 5495 5495 5495 5495 5495 5496 5496 5496 5497 5497 5498 5499 5500 5500 5501 5502 5503 5505 5507 5508 5509 5511 5512 5513 5514 5516 5517 5519 5520 5521 5522 5523 5524 5525 5525 5525 5525 5525 5525
5494 5493 5491 5490 5489 5488 5488 5487 5487 5487 5488 5488 5488 5489 5489 5490 5490 5491 5491 5492 5492 5493 5495 5496 5497 5498 5500 5501 5502 5503 5504 5505 5507 5508 5509 5509 5510 5511 5511 5512 5512 5512 5511 5511
5488 5487 5486 5484 5483 5482 5481 5480 5480 5480 5480 5480 5480 5481 5481 5481 5482 5482 5482 5482 5483 5484 5485 5486 5487 5488 5489 5490 5491 5492 5493 5494 5494 5495 5496 5497 5497 5498 5498 5499 5499 5499 5499 5498
5482 5481 5479 5478 5476 5475 5474 5473 5472 5472 5472 5472 5473 5473 5473 5473 5473 5473 5473 5473 5474 5474 5475 5475 5476 5477 5478 5479 5480 5481 5481 5482 5483 5484 5484 5484 5485 5485 5486 5486 5486 5486 5486 5485
5476 5475 5473 5471 5470 5468 5467 5466 5465 5465 5464 5464 5465 5465 5465 5465 5465 5465 5464 5464 5464 5465 5465 5465 5465 5466 5467 5468 5469 5470 5471 5471 5472 5472 5473 5473 5473 5473 5473 5474 5474 5474 5473 5473
5470 5468 5466 5465 5463 5461 5460 5459 5458 5457 5457 5457 5457 5457 5457 5457 5457 5456 5456 5456 5456 5456 5455 5455 5456 5456 5457 5458 5458 5459 5460 5461 5461 5461 5462 5462 5462 5462 5462 5462 5462 5462 5462 5461
5464 5462 5460 5458 5456 5455 5453 5452 5451 5450 5450 5450 5449 5449 5449 5449 5449 5448 5448 5447 5447 5447 5446 5446 5446 5447 5447 5447 5448 5449 5449 5450 5450 5451 5451 5451 5451 5451 5451 5451 5451 5451 5450 5450
5457 5455 5453 5451 5450 5448 5447 5446 5445 5444 5443 5443 5442 5442 5441 5441 5440 5440 5439 5439 5438 5437 5437 5437 5437 5437 5437 5437 5438 5438 5439 5439 5440 5440 5440 5441 5441 5441 5440 5440 5440 5440 5439 5438
5451 5449 5447 5445 5443 5442 5440 5439 5438 5437 5436 5435 5435 5434 5433 5433 5432 5432 5431 5430 5429 5428 5428 5428 5427 5427 5428 5428 5428 5429 5429 5430 5430 5430 5430 5430 5430 5430 5430 5429 5429 5429 5428 5428
5444 5442 5440 5438 5437 5435 5434 5433 5431 5430 5429 5428 5427 5426 5426 5425 5424 5423 5423 5422 5421 5420 5420 5419 5419 5419 5419 5419 5419 5420 5420 5420 5420 5420 5420 5420 5420 5420 5420 5419 5419 5418 5418 5417
5437 5435 5433 5432 5430 5428 5427 5426 5424 5423 5422 5421 5420 5419 5418 5417 5416 5416 5415 5414 5413 5412 5412 5411 5411 5410 5410 5410 5411 5411 5411 5411 5411 5411 5411 5411 5411 5411 5410 5410 5409 5409 5408 5408
5430 5428 5426 5425 5423 5422 5420 5419 5418 5416 5415 5414 5413 5411 5410 5410 5409 5407 5407 5406 5406 5405 5404 5403 5403 5403 5403 5403 5403 5402 5402 5402 5402 5402 5402 5402 5402 5402 5401 5401 5400 5400 5399 5399
5422 5421 5419 5417 5416 5415 5413 5412 5411 5409 5408 5407 5406 5405 5403 5403 5402 5401 5400 5399 5398 5398 5397 5396 5396 5395 5395 5395 5394 5394 5394 5394 5394 5394 5394 5394 5393 5393 5393 5393 5392 5391 5391 5390
5415 5413 5412 5410 5409 5408 5406 5405 5404 5403 5402 5401 5399 5398 5397 5396 5395 5394 5393 5392 5392 5391 5390 5390 5389 5388 5388 5387 5387 5386 5386 5386 5386 5386 5386 5386 5386 5385 5385 5385 5384 5384 5384 5383
5407 5406 5404 5403 5402 5400 5399 5398 5397 5396 5395 5394 5393 5392 5391 5390 5389 5388 5387 5386 5386 5385 5384 5383 5382 5382 5381 5380 5380 5379 5379 5379 5378 5378 5378 5378 5378 5378 5378 5378 5377 5377 5377 5377